Location: Most
(50.5133°N, 13.6207°E)
Time: 11:23:11
(UTC+01:00)

ISS - Pass Details

Date: 29 March 2017
Orbit: 399 x 409 km, 51.6° (Epoch: 23 March)

Event Time Altitude Azimuth Distance (km) Brightness Sun altitude
Rises 20:05:18 0° 203° (SSW) 2,300 0.1 -5.8°
Reaches altitude 10° 20:07:53 10° 181° (S) 1,448 -1.1 -6.2°
Maximum altitude 20:09:59 16° 140° (SE) 1,139 -2.0 -6.6°
Drops below altitude 10° 20:12:06 10° 100° (E) 1,458 -1.7 -6.9°
Enters shadow 20:12:20 - 97° (E) 1,525 -1.6 -6.9°
